sat.trackr.live / text

‹ back to catalog

STARLINK-32264

NORAD 61642 · 2024-191X

PAYLOAD ACTIVE UNKNOWN

§ Identity

Operator
Country
US
Launch date
2024-10-23
Launch site
AFETR
Launch vehicle
Mass (kg)
RCS (m²)

Purposes: comms

External: N2YO · Heavens-Above · Gunter

§ Orbital elements

Epoch: 2026-05-25T04:00:03.998880Z

Period
93.00 min
Inclination
42.9943°
Eccentricity
0.0017342
Mean motion
15.48450187 rev/d
Perigee alt
409.5 km
Apogee alt
433.1 km
Semi-major
6,799.4 km
B*
2.6338e-3
RAAN
77.0704°
Arg perigee
193.6930°
Mean anomaly
256.4672°
Rev number
594

§ Raw data

STARLINK-322641 61642U 24191X   26145.16671295  .00146502  00000+0  26338-2 0  99922 61642  42.9943  77.0704 0017342 193.6930 256.4672 15.48450187  5948

JSON: /api/v1/satellites/61642 · /tle

For live sub-satellite position, see the globe view (requires WebGL).

§ Visibility from observer

Set your observer location to see the next 7 days of passes ≥ 10°. The values pass through the URL so the page stays shareable.

No JS? Fill the form by hand. The geolocation button needs JavaScript.